Time,TemperatureF,DewpointF,PressureIn,WindDirection,WindDirectionDegrees,WindSpeedMPH,WindSpeedGustMPH,Humidity,HourlyPrecipIn,Conditions,Clouds,dailyrainin,SolarRadiationWatts/m^2,SoftwareType,DateUTC
2013-11-08 00:01:00,48.3,32.9,30.31,SSE,165,3.0,5.0,55,0.00,,---,0.00,0.00,VWS V14.01,2013-11-08 06:01:00,
2013-11-08 00:06:00,48.4,33.0,30.31,SSE,158,2.0,4.0,55,0.00,,---,0.00,0.00,VWS V14.01,2013-11-08 06:06:00,
2013-11-08 00:11:00,48.4,33.0,30.30,SSE,154,2.0,5.0,55,0.00,,---,0.00,0.00,VWS V14.01,2013-11-08 06:11:00,
2013-11-08 00:16:00,48.5,33.1,30.30,South,171,1.0,2.0,55,0.00,,---,0.00,0.00,VWS V14.01,2013-11-08 06:16:00,
2013-11-08 00:21:00,48.3,32.9,30.30,South,184,2.0,3.0,55,0.00,,---,0.00,0.00,VWS V14.01,2013-11-08 06:21:00,
2013-11-08 00:26:00,48.2,32.8,30.30,SSW,196,4.0,5.0,55,0.00,,---,0.00,0.00,VWS V14.01,2013-11-08 06:26:00,
2013-11-08 00:31:00,47.9,33.0,30.30,SSW,201,3.0,4.0,56,0.00,,---,0.00,0.00,VWS V14.01,2013-11-08 06:31:00,
2013-11-08 00:36:00,47.7,32.8,30.30,SSW,192,2.0,3.0,56,0.00,,---,0.00,0.00,VWS V14.01,2013-11-08 06:36:00,
2013-11-08 00:41:00,47.6,33.1,30.30,South,180,3.0,3.0,57,0.00,,---,0.00,0.00,VWS V14.01,2013-11-08 06:41:00,
2013-11-08 00:46:00,47.5,33.0,30.30,SSW,192,4.0,6.0,57,0.00,,---,0.00,0.00,VWS V14.01,2013-11-08 06:46:00,
2013-11-08 00:51:00,47.3,32.8,30.30,South,175,4.0,4.0,57,0.00,,---,0.00,0.00,VWS V14.01,2013-11-08 06:51:00,
2013-11-08 00:56:00,46.9,32.9,30.29,South,172,3.0,6.0,58,0.00,,---,0.00,0.00,VWS V14.01,2013-11-08 06:56:00,
2013-11-08 01:01:00,46.6,33.0,30.29,SSW,206,3.0,4.0,59,0.00,,---,0.00,0.00,VWS V14.01,2013-11-08 07:01:00,
2013-11-08 01:06:00,46.4,32.9,30.29,South,173,4.0,5.0,59,0.00,,---,0.00,0.00,VWS V14.01,2013-11-08 07:06:00,
2013-11-08 01:11:00,46.4,32.9,30.29,South,175,3.0,3.0,59,0.00,,---,0.00,0.00,VWS V14.01,2013-11-08 07:11:00,
2013-11-08 01:16:00,46.4,32.9,30.29,South,176,3.0,4.0,59,0.00,,---,0.00,0.00,VWS V14.01,2013-11-08 07:16:00,
2013-11-08 01:21:00,46.4,32.9,30.29,SSE,163,4.0,5.0,59,0.00,,---,0.00,0.00,VWS V14.01,2013-11-08 07:21:00,
2013-11-08 01:26:00,46.5,33.0,30.29,South,169,3.0,4.0,59,0.00,,---,0.00,0.00,VWS V14.01,2013-11-08 07:26:00,
2013-11-08 01:31:00,46.6,32.6,30.29,South,186,5.0,6.0,58,0.00,,---,0.00,0.00,VWS V14.01,2013-11-08 07:31:00,
2013-11-08 01:36:00,46.7,32.7,30.29,South,184,5.0,5.0,58,0.00,,---,0.00,0.00,VWS V14.01,2013-11-08 07:36:00,
2013-11-08 01:41:00,46.8,32.8,30.29,South,169,6.0,6.0,58,0.00,,---,0.00,0.00,VWS V14.01,2013-11-08 07:41:00,
2013-11-08 01:46:00,46.9,32.5,30.29,SSE,159,4.0,6.0,57,0.00,,---,0.00,0.00,VWS V14.01,2013-11-08 07:46:00,
2013-11-08 01:51:00,47.0,32.6,30.28,SE,145,5.0,5.0,57,0.00,,---,0.00,0.00,VWS V14.01,2013-11-08 07:51:00,
2013-11-08 01:56:00,47.1,32.7,30.28,SSE,163,4.0,6.0,57,0.00,,---,0.00,0.00,VWS V14.01,2013-11-08 07:56:00,
2013-11-08 02:01:00,47.0,33.0,30.28,SSE,157,7.0,7.0,58,0.00,,---,0.00,0.00,VWS V14.01,2013-11-08 08:01:00,
2013-11-08 02:06:00,46.9,32.9,30.28,South,181,4.0,5.0,58,0.00,,---,0.00,0.00,VWS V14.01,2013-11-08 08:06:00,
2013-11-08 02:11:00,46.7,32.7,30.28,South,190,5.0,5.0,58,0.00,,---,0.00,0.00,VWS V14.01,2013-11-08 08:11:00,
2013-11-08 02:16:00,46.6,33.0,30.28,South,180,5.0,6.0,59,0.00,,---,0.00,0.00,VWS V14.01,2013-11-08 08:16:00,
2013-11-08 02:21:00,46.5,33.0,30.28,SSE,154,5.0,5.0,59,0.00,,---,0.00,0.00,VWS V14.01,2013-11-08 08:21:00,
2013-11-08 02:26:00,46.4,32.9,30.28,South,181,4.0,5.0,59,0.00,,---,0.00,0.00,VWS V14.01,2013-11-08 08:26:00,
2013-11-08 02:31:00,46.3,32.8,30.28,South,186,4.0,5.0,59,0.00,,---,0.00,0.00,VWS V14.01,2013-11-08 08:31:00,
2013-11-08 02:36:00,46.1,33.0,30.27,South,178,4.0,5.0,60,0.00,,---,0.00,0.00,VWS V14.01,2013-11-08 08:36:00,
2013-11-08 02:41:00,45.9,32.8,30.27,South,173,3.0,5.0,60,0.00,,---,0.00,0.00,VWS V14.01,2013-11-08 08:41:00,
2013-11-08 02:46:00,45.6,32.9,30.28,SSW,194,4.0,4.0,61,0.00,,---,0.00,0.00,VWS V14.01,2013-11-08 08:46:00,
2013-11-08 02:51:00,45.2,33.0,30.27,SSW,202,2.0,4.0,62,0.00,,---,0.00,0.00,VWS V14.01,2013-11-08 08:51:00,
2013-11-08 02:56:00,44.9,32.7,30.27,South,191,4.0,4.0,62,0.00,,---,0.00,0.00,VWS V14.01,2013-11-08 08:56:00,
2013-11-08 03:01:00,44.5,32.7,30.27,South,178,1.0,2.0,63,0.00,,---,0.00,0.00,VWS V14.01,2013-11-08 09:01:00,
2013-11-08 03:06:00,44.3,32.9,30.26,South,174,2.0,3.0,64,0.00,,---,0.00,0.00,VWS V14.01,2013-11-08 09:06:00,
2013-11-08 03:11:00,44.1,32.7,30.26,South,173,4.0,4.0,64,0.00,,---,0.00,0.00,VWS V14.01,2013-11-08 09:11:00,
2013-11-08 03:16:00,43.9,32.9,30.26,South,183,4.0,5.0,65,0.00,,---,0.00,0.00,VWS V14.01,2013-11-08 09:16:00,
2013-11-08 03:21:00,43.7,32.7,30.26,South,185,3.0,3.0,65,0.00,,---,0.00,0.00,VWS V14.01,2013-11-08 09:21:00,
2013-11-08 03:26:00,43.6,33.0,30.26,South,173,3.0,4.0,66,0.00,,---,0.00,0.00,VWS V14.01,2013-11-08 09:26:00,
2013-11-08 03:31:00,43.4,32.8,30.26,South,172,3.0,4.0,66,0.00,,---,0.00,0.00,VWS V14.01,2013-11-08 09:31:00,
2013-11-08 03:36:00,43.3,33.1,30.26,South,179,3.0,3.0,67,0.00,,---,0.00,0.00,VWS V14.01,2013-11-08 09:36:00,
2013-11-08 03:41:00,43.3,33.1,30.26,SSE,152,4.0,4.0,67,0.00,,---,0.00,0.00,VWS V14.01,2013-11-08 09:41:00,
2013-11-08 03:46:00,43.2,33.0,30.26,SSE,164,3.0,3.0,67,0.00,,---,0.00,0.00,VWS V14.01,2013-11-08 09:46:00,
2013-11-08 03:51:00,43.1,32.9,30.25,SSE,164,4.0,4.0,67,0.00,,---,0.00,0.00,VWS V14.01,2013-11-08 09:51:00,
2013-11-08 03:56:00,42.9,32.7,30.25,SSE,162,3.0,3.0,67,0.00,,---,0.00,0.00,VWS V14.01,2013-11-08 09:56:00,
2013-11-08 04:01:00,42.8,33.0,30.25,SSE,161,3.0,4.0,68,0.00,,---,0.00,0.00,VWS V14.01,2013-11-08 10:01:00,
2013-11-08 04:06:00,42.6,32.8,30.25,SSE,159,4.0,4.0,68,0.00,,---,0.00,0.00,VWS V14.01,2013-11-08 10:06:00,
2013-11-08 04:11:00,42.4,33.0,30.25,SSE,164,3.0,4.0,69,0.00,,---,0.00,0.00,VWS V14.01,2013-11-08 10:11:00,
2013-11-08 04:16:00,42.2,32.8,30.25,South,172,1.0,3.0,69,0.00,,---,0.00,0.00,VWS V14.01,2013-11-08 10:16:00,
2013-11-08 04:21:00,42.0,32.9,30.25,South,175,1.0,2.0,70,0.00,,---,0.00,0.00,VWS V14.01,2013-11-08 10:21:00,
2013-11-08 04:26:00,41.9,32.8,30.25,South,181,3.0,3.0,70,0.00,,---,0.00,0.00,VWS V14.01,2013-11-08 10:26:00,
2013-11-08 04:31:00,41.8,32.8,30.25,South,190,2.0,3.0,70,0.00,,---,0.00,0.00,VWS V14.01,2013-11-08 10:31:00,
2013-11-08 04:36:00,41.8,32.8,30.25,South,190,1.0,2.0,70,0.00,,---,0.00,0.00,VWS V14.01,2013-11-08 10:36:00,
2013-11-08 04:41:00,41.7,32.7,30.24,South,190,1.0,2.0,70,0.00,,---,0.00,0.00,VWS V14.01,2013-11-08 10:41:00,
2013-11-08 04:46:00,41.6,32.6,30.25,South,190,2.0,2.0,70,0.00,,---,0.00,0.00,VWS V14.01,2013-11-08 10:46:00,
2013-11-08 04:51:00,41.5,32.5,30.25,South,188,2.0,3.0,70,0.00,,---,0.00,0.00,VWS V14.01,2013-11-08 10:51:00,
2013-11-08 04:56:00,41.4,32.4,30.25,South,175,2.0,3.0,70,0.00,,---,0.00,0.00,VWS V14.01,2013-11-08 10:56:00,
2013-11-08 05:01:00,41.3,32.6,30.25,South,169,2.0,4.0,71,0.00,,---,0.00,0.00,VWS V14.01,2013-11-08 11:01:00,
2013-11-08 05:06:00,41.2,32.5,30.25,South,170,3.0,3.0,71,0.00,,---,0.00,0.00,VWS V14.01,2013-11-08 11:06:00,
2013-11-08 05:11:00,41.1,32.4,30.24,SSE,158,3.0,4.0,71,0.00,,---,0.00,0.00,VWS V14.01,2013-11-08 11:11:00,
2013-11-08 05:16:00,41.0,32.3,30.24,SSE,157,2.0,4.0,71,0.00,,---,0.00,0.00,VWS V14.01,2013-11-08 11:16:00,
2013-11-08 05:21:00,40.9,32.6,30.24,SSE,155,2.0,4.0,72,0.00,,---,0.00,0.00,VWS V14.01,2013-11-08 11:21:00,
2013-11-08 05:26:00,40.8,32.5,30.24,South,170,4.0,5.0,72,0.00,,---,0.00,0.00,VWS V14.01,2013-11-08 11:26:00,
2013-11-08 05:31:00,40.7,32.4,30.24,SSE,163,5.0,5.0,72,0.00,,---,0.00,0.00,VWS V14.01,2013-11-08 11:31:00,
2013-11-08 05:36:00,40.6,32.3,30.24,SSE,167,2.0,4.0,72,0.00,,---,0.00,0.00,VWS V14.01,2013-11-08 11:36:00,
2013-11-08 05:41:00,40.6,32.3,30.24,SSE,161,5.0,5.0,72,0.00,,---,0.00,0.00,VWS V14.01,2013-11-08 11:41:00,
2013-11-08 05:46:00,40.6,32.3,30.24,SSE,165,2.0,5.0,72,0.00,,---,0.00,0.00,VWS V14.01,2013-11-08 11:46:00,
2013-11-08 05:51:00,40.7,32.4,30.24,South,173,3.0,5.0,72,0.00,,---,0.00,0.00,VWS V14.01,2013-11-08 11:51:00,
2013-11-08 05:56:00,40.8,32.5,30.24,South,188,4.0,6.0,72,0.00,,---,0.00,0.00,VWS V14.01,2013-11-08 11:56:00,
2013-11-08 06:01:00,41.0,32.7,30.24,South,177,4.0,6.0,72,0.00,,---,0.00,0.00,VWS V14.01,2013-11-08 12:01:00,
2013-11-08 06:06:00,41.1,32.4,30.24,South,173,4.0,6.0,71,0.00,,---,0.00,0.00,VWS V14.01,2013-11-08 12:06:00,
2013-11-08 06:11:00,41.1,32.8,30.23,South,178,3.0,8.0,72,0.00,,---,0.00,0.00,VWS V14.01,2013-11-08 12:11:00,
2013-11-08 06:16:00,41.1,32.8,30.24,SSE,153,3.0,4.0,72,0.00,,---,0.00,0.00,VWS V14.01,2013-11-08 12:16:00,
2013-11-08 06:21:00,41.0,32.7,30.23,South,178,5.0,6.0,72,0.00,,---,0.00,0.00,VWS V14.01,2013-11-08 12:21:00,
2013-11-08 06:26:00,40.9,32.6,30.23,South,170,1.0,5.0,72,0.00,,---,0.00,0.00,VWS V14.01,2013-11-08 12:26:00,
2013-11-08 06:31:00,40.7,32.4,30.23,SSE,147,3.0,7.0,72,0.00,,---,0.00,0.00,VWS V14.01,2013-11-08 12:31:00,
2013-11-08 06:36:00,40.7,32.7,30.23,South,175,5.0,5.0,73,0.00,,---,0.00,0.00,VWS V14.01,2013-11-08 12:36:00,
2013-11-08 06:41:00,40.6,32.6,30.23,SSE,163,5.0,6.0,73,0.00,,---,0.00,0.00,VWS V14.01,2013-11-08 12:41:00,
2013-11-08 06:46:00,40.6,32.6,30.23,SSE,165,4.0,6.0,73,0.00,,---,0.00,0.00,VWS V14.01,2013-11-08 12:46:00,
2013-11-08 06:51:00,40.7,32.7,30.23,SSW,200,5.0,5.0,73,0.00,,---,0.00,0.00,VWS V14.01,2013-11-08 12:51:00,
2013-11-08 06:56:00,40.9,32.6,30.23,South,172,3.0,5.0,72,0.00,,---,0.00,0.00,VWS V14.01,2013-11-08 12:56:00,
2013-11-08 07:01:00,41.0,32.7,30.23,SSE,164,5.0,7.0,72,0.00,,---,0.00,0.00,VWS V14.01,2013-11-08 13:01:00,
2013-11-08 07:06:00,41.1,32.8,30.23,SSE,159,5.0,6.0,72,0.00,,---,0.00,5.00,VWS V14.01,2013-11-08 13:06:00,
2013-11-08 07:11:00,41.2,32.5,30.23,SSE,165,5.0,7.0,71,0.00,,---,0.00,9.00,VWS V14.01,2013-11-08 13:11:00,
2013-11-08 07:16:00,41.3,32.6,30.23,South,190,5.0,7.0,71,0.00,,---,0.00,14.00,VWS V14.01,2013-11-08 13:16:00,
2013-11-08 07:21:00,41.4,32.7,30.23,South,181,4.0,6.0,71,0.00,,---,0.00,21.00,VWS V14.01,2013-11-08 13:21:00,
2013-11-08 07:26:00,41.5,32.8,30.23,South,185,5.0,6.0,71,0.00,,---,0.00,30.00,VWS V14.01,2013-11-08 13:26:00,
2013-11-08 07:31:00,41.5,32.8,30.23,South,182,3.0,6.0,71,0.00,,---,0.00,37.00,VWS V14.01,2013-11-08 13:31:00,
2013-11-08 07:36:00,41.5,32.8,30.23,South,171,3.0,4.0,71,0.00,,---,0.00,42.00,VWS V14.01,2013-11-08 13:36:00,
2013-11-08 07:41:00,41.6,32.9,30.23,SSW,192,4.0,5.0,71,0.00,,---,0.00,60.00,VWS V14.01,2013-11-08 13:41:00,
2013-11-08 07:46:00,41.8,33.1,30.23,South,190,4.0,6.0,71,0.00,,---,0.00,65.00,VWS V14.01,2013-11-08 13:46:00,
2013-11-08 07:51:00,42.0,33.3,30.23,South,173,5.0,6.0,71,0.00,,---,0.00,97.00,VWS V14.01,2013-11-08 13:51:00,
2013-11-08 07:56:00,42.3,33.6,30.23,South,189,5.0,7.0,71,0.00,,---,0.00,98.00,VWS V14.01,2013-11-08 13:56:00,
2013-11-08 08:01:00,43.0,33.9,30.23,South,187,6.0,7.0,70,0.00,,---,0.00,123.00,VWS V14.01,2013-11-08 14:01:00,
2013-11-08 08:05:00,43.6,34.1,30.23,SSW,192,5.0,9.0,69,0.00,,---,0.00,114.00,VWS V14.01,2013-11-08 14:05:00,
2013-11-08 08:10:00,43.9,34.0,30.23,South,169,9.0,10.0,68,0.00,,---,0.00,120.00,VWS V14.01,2013-11-08 14:10:00,
2013-11-08 08:15:00,44.2,34.3,30.23,SSE,164,5.0,6.0,68,0.00,,---,0.00,135.00,VWS V14.01,2013-11-08 14:15:00,
2013-11-08 08:20:00,44.5,34.6,30.22,SSW,207,7.0,7.0,68,0.00,,---,0.00,156.00,VWS V14.01,2013-11-08 14:20:00,
2013-11-08 08:25:00,45.0,35.1,30.22,South,185,6.0,11.0,68,0.00,,---,0.00,193.00,VWS V14.01,2013-11-08 14:25:00,
2013-11-08 08:30:00,45.8,35.5,30.22,South,180,5.0,6.0,67,0.00,,---,0.00,197.00,VWS V14.01,2013-11-08 14:30:00,
2013-11-08 08:35:00,46.6,35.9,30.22,SSE,167,11.0,11.0,66,0.00,,---,0.00,216.00,VWS V14.01,2013-11-08 14:35:00,
2013-11-08 08:40:00,47.5,35.9,30.23,SSE,165,6.0,9.0,64,0.00,,---,0.00,214.00,VWS V14.01,2013-11-08 14:40:00,
2013-11-08 08:45:00,48.3,36.3,30.23,South,176,7.0,9.0,63,0.00,,---,0.00,207.00,VWS V14.01,2013-11-08 14:45:00,
2013-11-08 08:50:00,49.1,36.2,30.22,South,169,14.0,14.0,61,0.00,,---,0.00,195.00,VWS V14.01,2013-11-08 14:50:00,
2013-11-08 08:55:00,49.8,36.1,30.22,SW,214,6.0,12.0,59,0.00,,---,0.00,202.00,VWS V14.01,2013-11-08 14:55:00,
2013-11-08 09:00:00,50.4,36.2,30.22,South,189,6.0,13.0,58,0.00,,---,0.00,197.00,VWS V14.01,2013-11-08 15:00:00,
2013-11-08 09:05:00,51.1,36.4,30.22,SSW,194,8.0,15.0,57,0.00,,---,0.00,206.00,VWS V14.01,2013-11-08 15:05:00,
2013-11-08 09:10:00,51.7,36.5,30.23,South,180,11.0,13.0,56,0.00,,---,0.00,223.00,VWS V14.01,2013-11-08 15:10:00,
2013-11-08 09:15:00,52.1,36.4,30.22,South,185,9.0,12.0,55,0.00,,---,0.00,220.00,VWS V14.01,2013-11-08 15:15:00,
2013-11-08 09:20:00,52.4,36.7,30.22,South,189,10.0,10.0,55,0.00,,---,0.00,251.00,VWS V14.01,2013-11-08 15:20:00,
2013-11-08 09:25:00,52.7,37.0,30.22,SSW,198,7.0,10.0,55,0.00,,---,0.00,272.00,VWS V14.01,2013-11-08 15:25:00,
2013-11-08 09:30:00,53.2,37.0,30.22,South,180,10.0,11.0,54,0.00,,---,0.00,348.00,VWS V14.01,2013-11-08 15:30:00,
2013-11-08 09:35:00,53.8,37.1,30.22,SSE,155,10.0,17.0,53,0.00,,---,0.00,418.00,VWS V14.01,2013-11-08 15:35:00,
2013-11-08 09:40:00,54.5,37.2,30.21,South,185,8.0,15.0,52,0.00,,---,0.00,387.00,VWS V14.01,2013-11-08 15:40:00,
2013-11-08 09:45:00,55.0,37.2,30.22,South,191,10.0,15.0,51,0.00,,---,0.00,424.00,VWS V14.01,2013-11-08 15:45:00,
2013-11-08 09:50:00,55.5,36.7,30.21,SE,145,18.0,18.0,49,0.00,,---,0.00,367.00,VWS V14.01,2013-11-08 15:50:00,
2013-11-08 09:55:00,55.8,36.9,30.20,South,190,12.0,15.0,49,0.00,,---,0.00,330.00,VWS V14.01,2013-11-08 15:55:00,
2013-11-08 10:00:00,55.9,36.5,30.20,SSE,151,10.0,13.0,48,0.00,,---,0.00,327.00,VWS V14.01,2013-11-08 16:00:00,
2013-11-08 10:05:00,56.1,36.7,30.20,South,174,11.0,14.0,48,0.00,,---,0.00,315.00,VWS V14.01,2013-11-08 16:05:00,
2013-11-08 10:10:00,56.3,36.9,30.19,SSW,194,14.0,16.0,48,0.00,,---,0.00,415.00,VWS V14.01,2013-11-08 16:10:00,
2013-11-08 10:15:00,56.6,36.6,30.19,SSW,202,16.0,16.0,47,0.00,,---,0.00,422.00,VWS V14.01,2013-11-08 16:15:00,
2013-11-08 10:20:00,56.8,36.8,30.19,South,182,14.0,16.0,47,0.00,,---,0.00,360.00,VWS V14.01,2013-11-08 16:20:00,
2013-11-08 10:25:00,57.2,37.2,30.19,South,185,8.0,13.0,47,0.00,,---,0.00,355.00,VWS V14.01,2013-11-08 16:25:00,
2013-11-08 10:30:00,57.6,37.0,30.19,South,175,12.0,14.0,46,0.00,,---,0.00,406.00,VWS V14.01,2013-11-08 16:30:00,
2013-11-08 10:35:00,57.9,37.3,30.19,South,188,9.0,16.0,46,0.00,,---,0.00,411.00,VWS V14.01,2013-11-08 16:35:00,
2013-11-08 10:40:00,58.3,37.1,30.19,South,180,7.0,10.0,45,0.00,,---,0.00,459.00,VWS V14.01,2013-11-08 16:40:00,
2013-11-08 10:45:00,59.0,37.7,30.18,SSE,166,11.0,13.0,45,0.00,,---,0.00,534.00,VWS V14.01,2013-11-08 16:45:00,
2013-11-08 10:50:00,59.6,37.7,30.18,South,177,12.0,16.0,44,0.00,,---,0.00,529.00,VWS V14.01,2013-11-08 16:50:00,
2013-11-08 10:55:00,59.9,37.4,30.18,SSE,165,12.0,17.0,43,0.00,,---,0.00,524.00,VWS V14.01,2013-11-08 16:55:00,
2013-11-08 11:00:00,60.2,37.6,30.18,SE,144,11.0,12.0,43,0.00,,---,0.00,480.00,VWS V14.01,2013-11-08 17:00:00,
2013-11-08 11:05:00,60.5,36.7,30.17,SSE,167,9.0,14.0,41,0.00,,---,0.00,452.00,VWS V14.01,2013-11-08 17:05:00,
2013-11-08 11:10:00,60.5,36.1,30.17,SSE,167,9.0,14.0,40,0.00,,---,0.00,441.00,VWS V14.01,2013-11-08 17:10:00,
2013-11-08 11:15:00,60.9,37.1,30.17,SSW,213,17.0,19.0,41,0.00,,---,0.00,545.00,VWS V14.01,2013-11-08 17:15:00,
2013-11-08 11:20:00,61.4,36.2,30.16,South,172,14.0,23.0,39,0.00,,---,0.00,578.00,VWS V14.01,2013-11-08 17:20:00,
2013-11-08 11:25:00,62.0,36.1,30.16,South,169,14.0,14.0,38,0.00,,---,0.00,622.00,VWS V14.01,2013-11-08 17:25:00,
2013-11-08 11:30:00,62.7,36.1,30.15,SSE,162,13.0,13.0,37,0.00,,---,0.00,624.00,VWS V14.01,2013-11-08 17:30:00,
2013-11-08 11:35:00,63.1,35.0,30.15,South,191,10.0,14.0,35,0.00,,---,0.00,592.00,VWS V14.01,2013-11-08 17:35:00,
2013-11-08 11:40:00,63.6,35.5,30.15,South,182,18.0,18.0,35,0.00,,---,0.00,608.00,VWS V14.01,2013-11-08 17:40:00,
2013-11-08 11:45:00,64.0,34.3,30.14,South,181,16.0,17.0,33,0.00,,---,0.00,622.00,VWS V14.01,2013-11-08 17:45:00,
2013-11-08 11:50:00,64.2,33.8,30.14,SSE,168,17.0,17.0,32,0.00,,---,0.00,645.00,VWS V14.01,2013-11-08 17:50:00,
2013-11-08 11:55:00,64.8,33.5,30.14,South,178,15.0,15.0,31,0.00,,---,0.00,606.00,VWS V14.01,2013-11-08 17:55:00,
2013-11-08 12:00:00,65.2,33.8,30.14,South,169,11.0,19.0,31,0.00,,---,0.00,559.00,VWS V14.01,2013-11-08 18:00:00,
2013-11-08 12:05:00,65.4,34.0,30.13,SSE,166,12.0,16.0,31,0.00,,---,0.00,619.00,VWS V14.01,2013-11-08 18:05:00,
2013-11-08 12:10:00,65.6,33.4,30.13,South,182,17.0,17.0,30,0.00,,---,0.00,691.00,VWS V14.01,2013-11-08 18:10:00,
2013-11-08 12:15:00,66.1,33.0,30.12,South,190,12.0,21.0,29,0.00,,---,0.00,613.00,VWS V14.01,2013-11-08 18:15:00,
2013-11-08 12:20:00,66.4,32.3,30.11,South,190,10.0,13.0,28,0.00,,---,0.00,664.00,VWS V14.01,2013-11-08 18:20:00,
2013-11-08 12:25:00,66.7,31.7,30.11,SSW,192,24.0,24.0,27,0.00,,---,0.00,531.00,VWS V14.01,2013-11-08 18:25:00,
2013-11-08 12:30:00,66.7,31.7,30.11,SSE,167,12.0,17.0,27,0.00,,---,0.00,598.00,VWS V14.01,2013-11-08 18:30:00,
2013-11-08 12:35:00,66.9,31.9,30.10,SSE,159,14.0,16.0,27,0.00,,---,0.00,487.00,VWS V14.01,2013-11-08 18:35:00,
2013-11-08 12:40:00,66.5,31.5,30.10,South,180,11.0,14.0,27,0.00,,---,0.00,469.00,VWS V14.01,2013-11-08 18:40:00,
2013-11-08 12:45:00,65.7,30.8,30.10,South,173,15.0,22.0,27,0.00,,---,0.00,492.00,VWS V14.01,2013-11-08 18:45:00,
2013-11-08 12:50:00,65.2,29.5,30.10,South,186,10.0,12.0,26,0.00,,---,0.00,475.00,VWS V14.01,2013-11-08 18:50:00,
2013-11-08 12:55:00,65.3,30.5,30.09,SE,139,11.0,17.0,27,0.00,,---,0.00,439.00,VWS V14.01,2013-11-08 18:55:00,
2013-11-08 13:00:00,65.5,30.7,30.09,South,187,13.0,14.0,27,0.00,,---,0.00,496.00,VWS V14.01,2013-11-08 19:00:00,
2013-11-08 13:05:00,65.3,30.5,30.08,SSE,150,15.0,24.0,27,0.00,,---,0.00,506.00,VWS V14.01,2013-11-08 19:05:00,
2013-11-08 13:10:00,65.6,31.6,30.08,South,173,11.0,14.0,28,0.00,,---,0.00,577.00,VWS V14.01,2013-11-08 19:10:00,
2013-11-08 13:15:00,65.9,31.0,30.08,SSE,153,14.0,17.0,27,0.00,,---,0.00,592.00,VWS V14.01,2013-11-08 19:15:00,
2013-11-08 13:20:00,66.6,30.7,30.08,South,175,13.0,17.0,26,0.00,,---,0.00,512.00,VWS V14.01,2013-11-08 19:20:00,
2013-11-08 13:25:00,66.2,30.3,30.07,SSW,199,12.0,20.0,26,0.00,,---,0.00,380.00,VWS V14.01,2013-11-08 19:25:00,
2013-11-08 13:30:00,66.2,31.3,30.07,SSW,200,11.0,19.0,27,0.00,,---,0.00,482.00,VWS V14.01,2013-11-08 19:30:00,
2013-11-08 13:35:00,66.3,31.4,30.07,SE,132,14.0,20.0,27,0.00,,---,0.00,431.00,VWS V14.01,2013-11-08 19:35:00,
2013-11-08 13:40:00,66.3,30.4,30.06,South,177,11.0,14.0,26,0.00,,---,0.00,403.00,VWS V14.01,2013-11-08 19:40:00,
2013-11-08 13:45:00,66.3,29.5,30.06,South,180,12.0,15.0,25,0.00,,---,0.00,420.00,VWS V14.01,2013-11-08 19:45:00,
2013-11-08 13:50:00,66.6,29.7,30.06,SSW,195,11.0,13.0,25,0.00,,---,0.00,434.00,VWS V14.01,2013-11-08 19:50:00,
2013-11-08 13:55:00,66.7,28.8,30.05,SSW,210,14.0,14.0,24,0.00,,---,0.00,336.00,VWS V14.01,2013-11-08 19:55:00,
2013-11-08 14:00:00,66.8,28.9,30.05,South,190,9.0,14.0,24,0.00,,---,0.00,427.00,VWS V14.01,2013-11-08 20:00:00,
2013-11-08 14:05:00,67.0,28.0,30.05,South,175,24.0,24.0,23,0.00,,---,0.00,524.00,VWS V14.01,2013-11-08 20:05:00,
2013-11-08 14:10:00,67.1,28.1,30.04,SE,146,16.0,21.0,23,0.00,,---,0.00,522.00,VWS V14.01,2013-11-08 20:10:00,
2013-11-08 14:15:00,67.3,29.3,30.04,South,172,17.0,17.0,24,0.00,,---,0.00,417.00,VWS V14.01,2013-11-08 20:15:00,
2013-11-08 14:20:00,67.1,28.1,30.04,South,180,14.0,20.0,23,0.00,,---,0.00,417.00,VWS V14.01,2013-11-08 20:20:00,
2013-11-08 14:25:00,67.1,28.1,30.04,SSE,158,23.0,23.0,23,0.00,,---,0.00,459.00,VWS V14.01,2013-11-08 20:25:00,
2013-11-08 14:30:00,67.1,29.1,30.04,South,175,13.0,15.0,24,0.00,,---,0.00,408.00,VWS V14.01,2013-11-08 20:30:00,
2013-11-08 14:35:00,67.1,28.1,30.03,South,185,16.0,19.0,23,0.00,,---,0.00,415.00,VWS V14.01,2013-11-08 20:35:00,
2013-11-08 14:40:00,67.0,29.0,30.03,South,184,10.0,13.0,24,0.00,,---,0.00,413.00,VWS V14.01,2013-11-08 20:40:00,
2013-11-08 14:45:00,67.2,28.2,30.03,SE,144,16.0,26.0,23,0.00,,---,0.00,401.00,VWS V14.01,2013-11-08 20:45:00,
2013-11-08 14:50:00,67.0,28.0,30.03,South,184,20.0,20.0,23,0.00,,---,0.00,311.00,VWS V14.01,2013-11-08 20:50:00,
2013-11-08 14:55:00,66.9,26.9,30.03,South,180,7.0,19.0,22,0.00,,---,0.00,285.00,VWS V14.01,2013-11-08 20:55:00,
2013-11-08 15:00:00,66.8,26.8,30.02,South,184,9.0,11.0,22,0.00,,---,0.00,281.00,VWS V14.01,2013-11-08 21:00:00,
2013-11-08 15:05:00,66.8,27.8,30.02,South,187,14.0,17.0,23,0.00,,---,0.00,255.00,VWS V14.01,2013-11-08 21:05:00,
2013-11-08 15:10:00,66.5,27.6,30.02,SSE,163,15.0,16.0,23,0.00,,---,0.00,227.00,VWS V14.01,2013-11-08 21:10:00,
2013-11-08 15:15:00,66.3,27.4,30.02,SSE,161,16.0,16.0,23,0.00,,---,0.00,251.00,VWS V14.01,2013-11-08 21:15:00,
2013-11-08 15:20:00,66.1,27.2,30.02,South,173,13.0,17.0,23,0.00,,---,0.00,234.00,VWS V14.01,2013-11-08 21:20:00,
2013-11-08 15:25:00,65.9,27.1,30.02,SW,228,13.0,21.0,23,0.00,,---,0.00,220.00,VWS V14.01,2013-11-08 21:25:00,
2013-11-08 15:30:00,65.6,26.8,30.01,SSW,194,16.0,16.0,23,0.00,,---,0.00,192.00,VWS V14.01,2013-11-08 21:30:00,
2013-11-08 15:35:00,65.3,26.6,30.01,South,175,14.0,23.0,23,0.00,,---,0.00,188.00,VWS V14.01,2013-11-08 21:35:00,
2013-11-08 15:40:00,65.1,27.4,30.01,SSE,150,12.0,19.0,24,0.00,,---,0.00,185.00,VWS V14.01,2013-11-08 21:40:00,
2013-11-08 15:45:00,65.0,28.4,30.01,South,169,15.0,16.0,25,0.00,,---,0.00,188.00,VWS V14.01,2013-11-08 21:45:00,
2013-11-08 15:50:00,65.1,29.4,30.01,South,191,12.0,17.0,26,0.00,,---,0.00,172.00,VWS V14.01,2013-11-08 21:50:00,
2013-11-08 15:55:00,65.0,28.4,30.00,SSW,212,19.0,20.0,25,0.00,,---,0.00,137.00,VWS V14.01,2013-11-08 21:55:00,
2013-11-08 16:00:00,64.8,29.1,30.00,South,188,15.0,15.0,26,0.00,,---,0.00,121.00,VWS V14.01,2013-11-08 22:00:00,
2013-11-08 16:05:00,64.7,29.0,30.00,SSE,161,9.0,19.0,26,0.00,,---,0.00,125.00,VWS V14.01,2013-11-08 22:05:00,
2013-11-08 16:10:00,64.7,29.0,30.01,SSE,162,15.0,18.0,26,0.00,,---,0.00,116.00,VWS V14.01,2013-11-08 22:10:00,
2013-11-08 16:15:00,64.7,28.1,30.00,South,171,11.0,18.0,25,0.00,,---,0.00,111.00,VWS V14.01,2013-11-08 22:15:00,
2013-11-08 16:20:00,64.6,28.0,30.00,South,173,7.0,8.0,25,0.00,,---,0.00,109.00,VWS V14.01,2013-11-08 22:20:00,
2013-11-08 16:25:00,64.6,27.0,30.01,South,178,17.0,19.0,24,0.00,,---,0.00,102.00,VWS V14.01,2013-11-08 22:25:00,
2013-11-08 16:30:00,64.4,25.8,30.01,South,169,15.0,19.0,23,0.00,,---,0.00,90.00,VWS V14.01,2013-11-08 22:30:00,
2013-11-08 16:35:00,64.3,25.7,30.01,SSE,166,14.0,14.0,23,0.00,,---,0.00,81.00,VWS V14.01,2013-11-08 22:35:00,
2013-11-08 16:40:00,64.0,25.5,30.01,South,178,12.0,13.0,23,0.00,,---,0.00,76.00,VWS V14.01,2013-11-08 22:40:00,
2013-11-08 16:45:00,63.8,26.3,30.00,SSE,155,13.0,18.0,24,0.00,,---,0.00,69.00,VWS V14.01,2013-11-08 22:45:00,
2013-11-08 16:50:00,63.4,26.0,30.00,South,170,11.0,14.0,24,0.00,,---,0.00,56.00,VWS V14.01,2013-11-08 22:50:00,
2013-11-08 16:55:00,63.1,26.7,30.00,SSE,153,19.0,23.0,25,0.00,,---,0.00,49.00,VWS V14.01,2013-11-08 22:55:00,
2013-11-08 17:00:00,62.9,26.6,30.00,SSE,148,19.0,19.0,25,0.00,,---,0.00,39.00,VWS V14.01,2013-11-08 23:00:00,
2013-11-08 17:05:00,62.6,27.3,30.00,South,175,10.0,16.0,26,0.00,,---,0.00,35.00,VWS V14.01,2013-11-08 23:05:00,
2013-11-08 17:10:00,62.4,27.1,29.99,South,180,10.0,13.0,26,0.00,,---,0.00,33.00,VWS V14.01,2013-11-08 23:10:00,
2013-11-08 17:15:00,62.2,27.8,29.99,South,172,17.0,17.0,27,0.00,,---,0.00,19.00,VWS V14.01,2013-11-08 23:15:00,
2013-11-08 17:20:00,62.0,27.7,29.99,South,176,14.0,15.0,27,0.00,,---,0.00,14.00,VWS V14.01,2013-11-08 23:20:00,
2013-11-08 17:25:00,61.7,28.3,29.99,SE,143,7.0,11.0,28,0.00,,---,0.00,11.00,VWS V14.01,2013-11-08 23:25:00,
2013-11-08 17:30:00,61.6,29.1,29.99,SSE,165,21.0,21.0,29,0.00,,---,0.00,7.00,VWS V14.01,2013-11-08 23:30:00,
2013-11-08 17:35:00,61.4,28.9,30.00,SSW,200,13.0,17.0,29,0.00,,---,0.00,5.00,VWS V14.01,2013-11-08 23:35:00,
2013-11-08 17:40:00,61.2,29.5,30.00,South,185,11.0,11.0,30,0.00,,---,0.00,5.00,VWS V14.01,2013-11-08 23:40:00,
2013-11-08 17:45:00,61.1,29.5,30.00,South,171,9.0,11.0,30,0.00,,---,0.00,7.00,VWS V14.01,2013-11-08 23:45:00,
2013-11-08 17:50:00,60.9,30.1,30.01,South,187,9.0,11.0,31,0.00,,---,0.00,0.00,VWS V14.01,2013-11-08 23:50:00,
2013-11-08 17:55:00,60.7,29.9,30.01,SSW,196,9.0,10.0,31,0.00,,---,0.00,0.00,VWS V14.01,2013-11-08 23:55:00,
2013-11-08 18:00:00,60.6,30.6,30.01,SSE,163,9.0,12.0,32,0.00,,---,0.00,0.00,VWS V14.01,2013-11-09 00:00:00,
2013-11-08 18:05:00,60.5,30.5,30.01,South,189,12.0,16.0,32,0.00,,---,0.00,0.00,VWS V14.01,2013-11-09 00:05:00,
2013-11-08 18:10:00,60.4,30.4,30.00,South,178,5.0,8.0,32,0.00,,---,0.00,0.00,VWS V14.01,2013-11-09 00:10:00,
2013-11-08 18:15:00,60.2,30.2,30.01,SSW,212,10.0,10.0,32,0.00,,---,0.00,0.00,VWS V14.01,2013-11-09 00:15:00,
2013-11-08 18:20:00,60.0,30.8,30.00,South,169,9.0,12.0,33,0.00,,---,0.00,0.00,VWS V14.01,2013-11-09 00:20:00,
2013-11-08 18:25:00,59.9,31.5,30.00,South,174,12.0,12.0,34,0.00,,---,0.00,0.00,VWS V14.01,2013-11-09 00:25:00,
2013-11-08 18:30:00,59.8,31.4,30.00,SSE,167,10.0,15.0,34,0.00,,---,0.00,0.00,VWS V14.01,2013-11-09 00:30:00,
2013-11-08 18:35:00,59.9,31.5,29.99,SSW,192,12.0,12.0,34,0.00,,---,0.00,0.00,VWS V14.01,2013-11-09 00:35:00,
2013-11-08 18:40:00,59.8,32.1,29.99,South,177,13.0,16.0,35,0.00,,---,0.00,0.00,VWS V14.01,2013-11-09 00:40:00,
2013-11-08 18:45:00,59.7,32.0,30.00,South,190,12.0,15.0,35,0.00,,---,0.00,0.00,VWS V14.01,2013-11-09 00:45:00,
2013-11-08 18:50:00,59.7,32.0,30.00,SSW,205,10.0,16.0,35,0.00,,---,0.00,0.00,VWS V14.01,2013-11-09 00:50:00,
2013-11-08 18:55:00,59.5,32.5,30.00,South,184,13.0,15.0,36,0.00,,---,0.00,0.00,VWS V14.01,2013-11-09 00:55:00,
2013-11-08 19:00:00,59.5,33.2,29.99,SSE,161,15.0,15.0,37,0.00,,---,0.00,0.00,VWS V14.01,2013-11-09 01:00:00,
2013-11-08 19:05:00,59.3,33.0,30.00,South,172,12.0,15.0,37,0.00,,---,0.00,0.00,VWS V14.01,2013-11-09 01:05:00,
2013-11-08 19:10:00,59.1,32.9,30.00,SSE,165,17.0,17.0,37,0.00,,---,0.00,0.00,VWS V14.01,2013-11-09 01:10:00,
2013-11-08 19:15:00,59.0,33.5,29.99,SSE,163,12.0,15.0,38,0.00,,---,0.00,0.00,VWS V14.01,2013-11-09 01:15:00,
2013-11-08 19:20:00,58.8,33.3,29.99,South,173,14.0,16.0,38,0.00,,---,0.00,0.00,VWS V14.01,2013-11-09 01:20:00,
2013-11-08 19:25:00,58.7,33.8,29.99,South,183,10.0,12.0,39,0.00,,---,0.00,0.00,VWS V14.01,2013-11-09 01:25:00,
2013-11-08 19:30:00,58.5,34.3,29.99,South,169,15.0,15.0,40,0.00,,---,0.00,0.00,VWS V14.01,2013-11-09 01:30:00,
2013-11-08 19:35:00,58.3,34.1,29.98,South,174,18.0,19.0,40,0.00,,---,0.00,0.00,VWS V14.01,2013-11-09 01:35:00,
2013-11-08 19:40:00,58.2,35.2,29.98,South,180,13.0,15.0,42,0.00,,---,0.00,0.00,VWS V14.01,2013-11-09 01:40:00,
2013-11-08 19:45:00,58.1,35.7,29.99,SSE,167,13.0,13.0,43,0.00,,---,0.00,0.00,VWS V14.01,2013-11-09 01:45:00,
2013-11-08 19:50:00,57.9,36.1,29.99,SE,140,14.0,14.0,44,0.00,,---,0.00,0.00,VWS V14.01,2013-11-09 01:50:00,
2013-11-08 19:55:00,57.6,36.4,29.99,SSW,192,10.0,10.0,45,0.00,,---,0.00,0.00,VWS V14.01,2013-11-09 01:55:00,
2013-11-08 20:00:00,57.4,37.3,29.98,SSE,167,11.0,15.0,47,0.00,,---,0.00,0.00,VWS V14.01,2013-11-09 02:00:00,
2013-11-08 20:05:00,57.1,37.6,29.99,SSE,164,14.0,14.0,48,0.00,,---,0.00,0.00,VWS V14.01,2013-11-09 02:05:00,
2013-11-08 20:10:00,56.8,38.4,29.98,South,177,11.0,20.0,50,0.00,,---,0.00,0.00,VWS V14.01,2013-11-09 02:10:00,
2013-11-08 20:15:00,56.5,38.1,29.98,SSW,198,11.0,17.0,50,0.00,,---,0.00,0.00,VWS V14.01,2013-11-09 02:15:00,
2013-11-08 20:20:00,56.1,38.2,29.98,South,180,13.0,15.0,51,0.00,,---,0.00,0.00,VWS V14.01,2013-11-09 02:20:00,
2013-11-08 20:25:00,55.7,38.8,29.98,South,182,15.0,19.0,53,0.00,,---,0.00,0.00,VWS V14.01,2013-11-09 02:25:00,
2013-11-08 20:30:00,55.4,39.5,29.99,South,186,15.0,18.0,55,0.00,,---,0.00,0.00,VWS V14.01,2013-11-09 02:30:00,
2013-11-08 20:35:00,55.2,39.8,29.99,South,188,12.0,18.0,56,0.00,,---,0.00,0.00,VWS V14.01,2013-11-09 02:35:00,
2013-11-08 20:40:00,55.1,39.7,29.99,SSE,167,11.0,17.0,56,0.00,,---,0.00,0.00,VWS V14.01,2013-11-09 02:40:00,
2013-11-08 20:45:00,54.9,39.5,29.99,South,177,18.0,22.0,56,0.00,,---,0.00,0.00,VWS V14.01,2013-11-09 02:45:00,
2013-11-08 20:50:00,54.6,39.7,30.00,South,181,9.0,18.0,57,0.00,,---,0.00,0.00,VWS V14.01,2013-11-09 02:50:00,
2013-11-08 20:55:00,54.3,39.8,30.00,South,181,9.0,17.0,58,0.00,,---,0.00,0.00,VWS V14.01,2013-11-09 02:55:00,
2013-11-08 21:00:00,54.0,40.0,30.00,SSW,194,13.0,16.0,59,0.00,,---,0.00,0.00,VWS V14.01,2013-11-09 03:00:00,
2013-11-08 21:05:00,53.8,40.3,30.00,South,181,13.0,17.0,60,0.00,,---,0.00,0.00,VWS V14.01,2013-11-09 03:05:00,
2013-11-08 21:10:00,53.7,40.6,30.00,South,186,13.0,15.0,61,0.00,,---,0.00,0.00,VWS V14.01,2013-11-09 03:10:00,
2013-11-08 21:15:00,53.5,40.8,30.00,SSE,163,10.0,16.0,62,0.00,,---,0.00,0.00,VWS V14.01,2013-11-09 03:15:00,
2013-11-08 21:20:00,53.4,40.7,30.00,SSE,159,16.0,16.0,62,0.00,,---,0.00,0.00,VWS V14.01,2013-11-09 03:20:00,
2013-11-08 21:25:00,53.3,41.0,30.00,SSE,154,10.0,16.0,63,0.00,,---,0.00,0.00,VWS V14.01,2013-11-09 03:25:00,
2013-11-08 21:30:00,53.2,41.0,30.00,SSE,152,12.0,12.0,63,0.00,,---,0.00,0.00,VWS V14.01,2013-11-09 03:30:00,
2013-11-08 21:35:00,53.1,40.8,30.01,SSW,192,6.0,11.0,63,0.00,,---,0.00,0.00,VWS V14.01,2013-11-09 03:35:00,
2013-11-08 21:40:00,53.0,41.2,30.01,South,186,10.0,12.0,64,0.00,,---,0.00,0.00,VWS V14.01,2013-11-09 03:40:00,
2013-11-08 21:45:00,52.9,41.1,30.01,South,184,9.0,14.0,64,0.00,,---,0.00,0.00,VWS V14.01,2013-11-09 03:45:00,
2013-11-08 21:50:00,52.8,41.0,30.01,SSE,159,5.0,13.0,64,0.00,,---,0.00,0.00,VWS V14.01,2013-11-09 03:50:00,
2013-11-08 21:55:00,52.7,40.9,30.01,SSE,156,10.0,17.0,64,0.00,,---,0.00,0.00,VWS V14.01,2013-11-09 03:55:00,
2013-11-08 22:00:00,52.6,40.8,30.01,SSW,193,12.0,17.0,64,0.00,,---,0.00,0.00,VWS V14.01,2013-11-09 04:00:00,
2013-11-08 22:05:00,52.4,40.6,30.01,SSW,202,9.0,15.0,64,0.00,,---,0.00,0.00,VWS V14.01,2013-11-09 04:05:00,
2013-11-08 22:10:00,52.3,40.5,30.00,South,178,11.0,15.0,64,0.00,,---,0.00,0.00,VWS V14.01,2013-11-09 04:10:00,
2013-11-08 22:15:00,52.2,40.4,30.00,South,185,12.0,14.0,64,0.00,,---,0.00,0.00,VWS V14.01,2013-11-09 04:15:00,
2013-11-08 22:20:00,52.1,40.3,30.00,South,191,9.0,12.0,64,0.00,,---,0.00,0.00,VWS V14.01,2013-11-09 04:20:00,
2013-11-08 22:25:00,52.0,40.2,30.01,South,182,9.0,11.0,64,0.00,,---,0.00,0.00,VWS V14.01,2013-11-09 04:25:00,
2013-11-08 22:30:00,51.9,40.1,30.01,SSW,196,11.0,12.0,64,0.00,,---,0.00,0.00,VWS V14.01,2013-11-09 04:30:00,
2013-11-08 22:35:00,51.8,40.0,30.00,South,188,13.0,14.0,64,0.00,,---,0.00,0.00,VWS V14.01,2013-11-09 04:35:00,
2013-11-08 22:40:00,51.8,40.0,30.00,SSE,157,6.0,13.0,64,0.00,,---,0.00,0.00,VWS V14.01,2013-11-09 04:40:00,
2013-11-08 22:45:00,51.7,39.9,30.00,South,179,11.0,13.0,64,0.00,,---,0.00,0.00,VWS V14.01,2013-11-09 04:45:00,
2013-11-08 22:50:00,51.8,40.0,30.00,SSW,198,9.0,11.0,64,0.00,,---,0.00,0.00,VWS V14.01,2013-11-09 04:50:00,
2013-11-08 22:55:00,51.7,39.9,30.00,SSE,168,6.0,11.0,64,0.00,,---,0.00,0.00,VWS V14.01,2013-11-09 04:55:00,
2013-11-08 23:00:00,51.6,39.8,30.00,SSE,158,7.0,14.0,64,0.00,,---,0.00,0.00,VWS V14.01,2013-11-09 05:00:00,
2013-11-08 23:01:00,51.6,39.8,30.00,SSE,159,6.0,13.0,64,0.00,,---,0.00,0.00,VWS V14.01,2013-11-09 05:01:00,
2013-11-08 23:06:00,51.5,39.7,30.00,South,180,12.0,12.0,64,0.00,,---,0.00,0.00,VWS V14.01,2013-11-09 05:06:00,
2013-11-08 23:11:00,51.4,40.0,30.00,South,184,6.0,15.0,65,0.00,,---,0.00,0.00,VWS V14.01,2013-11-09 05:11:00,
2013-11-08 23:16:00,51.3,40.0,30.00,South,182,9.0,14.0,65,0.00,,---,0.00,0.00,VWS V14.01,2013-11-09 05:16:00,
2013-11-08 23:21:00,51.3,40.0,30.00,South,186,13.0,13.0,65,0.00,,---,0.00,0.00,VWS V14.01,2013-11-09 05:21:00,
2013-11-08 23:26:00,51.3,40.3,30.00,SSW,198,7.0,12.0,66,0.00,,---,0.00,0.00,VWS V14.01,2013-11-09 05:26:00,
2013-11-08 23:31:00,51.2,40.2,30.00,South,186,6.0,12.0,66,0.00,,---,0.00,0.00,VWS V14.01,2013-11-09 05:31:00,
2013-11-08 23:36:00,51.0,40.4,30.00,South,176,13.0,13.0,67,0.00,,---,0.00,0.00,VWS V14.01,2013-11-09 05:36:00,
2013-11-08 23:41:00,51.0,40.4,30.00,South,177,8.0,11.0,67,0.00,,---,0.00,0.00,VWS V14.01,2013-11-09 05:41:00,
2013-11-08 23:46:00,50.9,40.3,30.00,SSE,162,11.0,12.0,67,0.00,,---,0.00,0.00,VWS V14.01,2013-11-09 05:46:00,
2013-11-08 23:51:00,50.9,40.3,30.00,SSW,193,9.0,12.0,67,0.00,,---,0.00,0.00,VWS V14.01,2013-11-09 05:51:00,
2013-11-08 23:56:00,50.9,40.3,29.99,SSW,213,9.0,13.0,67,0.00,,---,0.00,0.00,VWS V14.01,2013-11-09 05:56:00,